Tracking 21470 objects as of 23-Sep-2020
HD Live streaming from Space Station
objects crossing your sky now

DELTA 1 DEB

Track DELTA 1 DEB now!
10-day predictions


NORAD ID: 37658
Int'l Code: 1978-026JV
Perigee: 861.9 km
Apogee: 960.6 km
Inclination: 99.4 °
Period: 103.1 minutes
Semi major axis: 7282 km
RCS: 0.007 m2 (small)
Launch date: March 5, 1978
Source: United States (US)
Launch site: AIR FORCE WESTERN TEST RANGE (AFWTR)

Note: This is SATELLITE DEBRIS
aabbcc
Your satellite tracking list
Your tracking list is empty




NASA's NSSDC Master Catalog

Two Line Element Set (TLE):
1 37658U 78026JV  20266.06092400 -.00000129 +00000-0 -57668-4 0  9999
2 37658 099.4254 107.4307 0067765 005.0444 146.7027 13.97038192880639
Source of the keplerian elements: AFSPC